Location: Slave Lake
(55.2830°N, 114.7830°W)
Time: 19:26:40
(UTC-06:00)

Amateur Radio Satellites - All Passes

Search period start: 24 October 2014 18:56
Search period end: 25 October 2014 18:56
Location: Slave Lake, 55.2830°N, 114.7830°W

Satellite Date Start Highest point End Downlink Frequencies (MHz)
Time Altitude Azimuth
ISS 24 Oct 19:09:15 19:12:00 24° 205° (SSW) 19:14:45 145.800 FM
AO-7 24 Oct 19:14:58 19:19:43 16° 280° (W) 19:24:29 29.400 - 29.500 MHz
JAS-2 24 Oct 19:39:14 19:44:29 28° 274° (W) 19:50:18 435.800 - 435.900 CW/SSB, 435.910 FM
SO-67 24 Oct 19:39:19 19:42:46 84° 75° (ENE) 19:46:14 435.3500 MHz FM
AO-40 24 Oct 19:39:55 23:34:08 23° 192° (SSW) 03:51:49 Beacon 2401.320
Hamsat 24 Oct 19:55:53 19:58:26 16° 273° (W) 20:00:58 145.90 MHz
HO-68 24 Oct 20:08:30 20:15:06 42° 54° (NE) 20:21:44 435.675 MHz FM
OPAL 24 Oct 20:08:47 20:13:38 51° 298° (WNW) 20:18:25 ?
STRAND 1 24 Oct 20:13:53 20:18:48 42° 98° (E) 20:23:40 ?
UOSAT-12 24 Oct 20:15:33 20:19:35 27° 1° (N) 20:23:38 437.025 FM, 437.400 FM
KITSAT 1 24 Oct 20:20:10 20:28:12 61° 34° (NNE) 20:36:12 435.175 FM
SO-50 24 Oct 20:32:15 20:36:53 47° 30° (NNE) 20:41:35 436.795 FM
Oscar 11 24 Oct 20:34:27 20:36:51 15° 52° (NE) 20:39:15 145.825 FM, Beacon 2401.500 USB
SO-67 24 Oct 21:15:18 21:16:17 11° 274° (W) 21:17:16 435.3500 MHz FM
ZACube-1 24 Oct 21:22:32 21:25:45 19° 55° (NE) 21:28:56 437.345 MHz
UKube-1 24 Oct 21:26:45 21:30:49 39° 64° (ENE) 21:34:54 145.840 MHz, 145.915 MHz
OPAL 24 Oct 21:49:02 21:51:32 14° 319° (NW) 21:54:01 ?
STRAND 1 24 Oct 21:53:12 21:58:01 41° 298° (WNW) 22:02:49 ?
RS-15 24 Oct 21:53:44 22:01:29 23° 100° (E) 22:09:12 29.354 - 29.394 USB, Beacon 29.352 USB
HO-68 24 Oct 21:55:31 22:02:37 63° 256° (WSW) 22:09:47 435.675 MHz FM
UOSAT-12 24 Oct 21:56:19 22:00:49 40° 25° (NNE) 22:05:16 437.025 FM, 437.400 FM
FUNcube-1 24 Oct 22:06:00 22:10:13 38° 65° (ENE) 22:14:22 145.950 - 145.970 MHz USB
Oscar 11 24 Oct 22:08:03 22:12:22 75° 72° (ENE) 22:16:42 145.825 FM, Beacon 2401.500 USB
SO-50 24 Oct 22:12:54 22:17:35 53° 231° (SW) 22:22:20 436.795 FM
KITSAT 1 24 Oct 22:15:51 22:23:42 57° 238° (WSW) 22:31:30 435.175 FM
ZACube-1 24 Oct 22:57:05 23:01:40 83° 255° (WSW) 23:06:11 437.345 MHz
UKube-1 24 Oct 23:03:07 23:07:05 33° 264° (W) 23:11:05 145.840 MHz, 145.915 MHz
STRAND 1 24 Oct 23:34:29 23:35:59 11° 320° (NW) 23:37:29 ?
UOSAT-12 24 Oct 23:36:33 23:41:18 69° 227° (SW) 23:45:57 437.025 FM, 437.400 FM
FUNcube-1 24 Oct 23:42:26 23:46:38 36° 264° (W) 23:50:48 145.950 - 145.970 MHz USB
Oscar 11 24 Oct 23:46:10 23:49:05 17° 272° (W) 23:52:00 145.825 FM, Beacon 2401.500 USB
HO-68 24 Oct 23:47:44 23:51:52 16° 279° (W) 23:56:02 435.675 MHz FM
SO-50 24 Oct 23:55:40 23:57:12 11° 251° (WSW) 23:58:44 436.795 FM
Oscar 10/S400 24 Oct 23:58:51 00:44:54 25° 219° (SW) 03:51:33 145.825 - 145.975 CW/USB, Beacon 145.810 USB
RS-15 25 Oct 00:00:56 00:11:43 69° 126° (SE) 00:22:34 29.354 - 29.394 USB, Beacon 29.352 USB
KITSAT 1 25 Oct 00:13:00 00:17:24 16° 261° (W) 00:21:47 435.175 FM
MaSat-1 25 Oct 00:28:46 00:31:51 22° 114° (ESE) 00:34:43 437.345 MHz
ZACube-1 25 Oct 00:36:19 00:38:46 14° 275° (W) 00:41:12 437.345 MHz
UOSAT-12 25 Oct 01:17:57 01:20:40 15° 248° (WSW) 01:23:21 437.025 FM, 437.400 FM
Oscar 16 25 Oct 01:40:57 01:42:44 12° 81° (E) 01:44:30 437.025 USB, Beacon 2401.1428
JAS-1B 25 Oct 01:42:43 01:46:30 16° 84° (E) 01:50:34 435.800 - 435.900 CW/SSB
MaSat-1 25 Oct 02:03:29 02:07:18 55° 311° (NW) 02:10:42 437.345 MHz
RS-15 25 Oct 02:13:38 02:24:28 63° 335° (NNW) 02:35:30 29.354 - 29.394 USB, Beacon 29.352 USB
Oscar 19 25 Oct 02:32:34 02:36:59 28° 93° (E) 02:41:22 437.125 CW, 437.150 USB
AO-27 25 Oct 02:51:06 02:54:55 20° 88° (E) 02:58:41 436.795 MHz FM
AO-Echo 25 Oct 03:11:33 03:16:24 35° 95° (E) 03:21:15 ?
Oscar 16 25 Oct 03:18:05 03:23:11 61° 102° (ESE) 03:28:16 437.025 USB, Beacon 2401.1428
JAS-1B 25 Oct 03:31:56 03:38:15 66° 104° (ESE) 03:45:44 435.800 - 435.900 CW/SSB
Uribyol 2 25 Oct 03:38:04 03:43:05 44° 98° (E) 03:48:02 436.500 FM
MaSat-1 25 Oct 03:41:32 03:43:33 14° 330° (NNW) 03:45:27 437.345 MHz
ITAMSAT 1 25 Oct 03:44:08 03:49:12 46° 99° (E) 03:54:13 435.822 SSB
PCSat 25 Oct 03:51:05 03:53:59 15° 105° (ESE) 03:56:54 145.825 MHz
Gurwin Techsat 1B 25 Oct 04:05:20 04:10:23 41° 97° (E) 04:15:24 435.225 FM
Oscar 19 25 Oct 04:11:39 04:16:41 58° 293° (WNW) 04:21:41 437.125 CW, 437.150 USB
OPAL 25 Oct 04:14:21 04:18:38 28° 53° (NE) 04:22:53 ?
TMSAT-1 25 Oct 04:16:26 04:21:25 39° 96° (E) 04:26:23 436.925 FM
RS-15 25 Oct 04:28:10 04:38:51 53° 8° (N) 04:49:51 29.354 - 29.394 USB, Beacon 29.352 USB
AO-27 25 Oct 04:29:50 04:35:07 84° 288° (WNW) 04:40:21 436.795 MHz FM
AO-Echo 25 Oct 04:50:15 04:55:21 50° 295° (WNW) 05:00:28 ?
JAS-2 25 Oct 04:55:52 04:58:11 11° 72° (ENE) 05:00:31 435.800 - 435.900 CW/SSB, 435.910 FM
Uosat F 25 Oct 04:57:34 05:00:51 17° 87° (E) 05:04:07 435.120 FM
Oscar 16 25 Oct 04:57:54 05:02:17 29° 303° (WNW) 05:06:38 437.025 USB, Beacon 2401.1428
Sapphire 25 Oct 05:08:53 05:14:00 45° 120° (ESE) 05:19:10 437.095 MHz 1200 baud AX-25 AFSK
AO-7 25 Oct 05:09:52 05:17:13 33° 93° (E) 05:24:33 29.400 - 29.500 MHz
Uribyol 2 25 Oct 05:17:42 05:22:33 39° 299° (WNW) 05:27:22 436.500 FM
JAS-1B 25 Oct 05:23:11 05:28:44 35° 303° (WNW) 05:35:06 435.800 - 435.900 CW/SSB
ITAMSAT 1 25 Oct 05:23:50 05:28:39 38° 299° (WNW) 05:33:26 435.822 SSB
PCSat 25 Oct 05:31:04 05:36:26 65° 126° (SE) 05:41:50 145.825 MHz
Gurwin Techsat 1B 25 Oct 05:45:25 05:50:25 43° 298° (WNW) 05:55:24 435.225 FM
OPAL 25 Oct 05:52:05 05:57:12 67° 254° (WSW) 06:02:17 ?
Oscar 19 25 Oct 05:52:19 05:55:05 15° 314° (NW) 05:57:51 437.125 CW, 437.150 USB
TMSAT-1 25 Oct 05:56:25 06:01:27 44° 297° (WNW) 06:06:28 436.925 FM
STRAND 1 25 Oct 05:59:16 06:03:30 27° 55° (NE) 06:07:45 ?
AO-27 25 Oct 06:10:11 06:13:59 21° 309° (NW) 06:17:46 436.795 MHz FM
AO-Echo 25 Oct 06:30:31 06:33:03 14° 316° (NW) 06:35:35 ?
Uosat F 25 Oct 06:35:18 06:40:24 87° 108° (ESE) 06:45:28 435.120 FM
JAS-2 25 Oct 06:37:56 06:45:14 44° 94° (E) 06:52:40 435.800 - 435.900 CW/SSB, 435.910 FM
RS-15 25 Oct 06:41:38 06:52:44 81° 39° (NE) 07:04:15 29.354 - 29.394 USB, Beacon 29.352 USB
Sapphire 25 Oct 06:52:08 06:57:26 52° 322° (NW) 07:02:47 437.095 MHz 1200 baud AX-25 AFSK
Uribyol 2 25 Oct 06:59:20 07:00:46 11° 321° (NW) 07:02:11 436.500 FM
AO-7 25 Oct 07:02:31 07:10:51 80° 296° (WNW) 07:19:11 29.400 - 29.500 MHz
ITAMSAT 1 25 Oct 07:05:41 07:06:51 11° 321° (NW) 07:08:01 435.822 SSB
PCSat 25 Oct 07:15:03 07:20:11 41° 328° (NNW) 07:25:21 145.825 MHz
JAS-1B 25 Oct 07:16:02 07:17:48 11° 327° (NNW) 07:19:38 435.800 - 435.900 CW/SSB
Gurwin Techsat 1B 25 Oct 07:27:14 07:29:10 12° 319° (NW) 07:31:05 435.225 FM
Hamsat 25 Oct 07:31:50 07:36:00 60° 101° (ESE) 07:40:10 145.90 MHz
OPAL 25 Oct 07:34:42 07:37:03 13° 274° (W) 07:39:24 ?
STRAND 1 25 Oct 07:37:11 07:42:19 70° 256° (WSW) 07:47:30 ?
TMSAT-1 25 Oct 07:38:05 07:40:11 12° 319° (NW) 07:42:16 436.925 FM
Uosat F 25 Oct 08:14:51 08:18:39 22° 308° (NW) 08:22:25 435.120 FM
JAS-2 25 Oct 08:23:02 08:30:30 61° 295° (WNW) 08:38:12 435.800 - 435.900 CW/SSB, 435.910 FM
SO-67 25 Oct 08:28:26 08:31:40 35° 97° (E) 08:34:53 435.3500 MHz FM
Saudisat 1A 25 Oct 08:31:02 08:34:45 27° 121° (ESE) 08:38:30 436.775 MHz
MaSat-1 25 Oct 08:31:42 08:34:21 31° 43° (NE) 08:36:46 437.345 MHz
Sapphire 25 Oct 08:37:28 08:42:00 26° 347° (NNW) 08:46:34 437.095 MHz 1200 baud AX-25 AFSK
RS-15 25 Oct 08:54:16 09:04:29 45° 245° (WSW) 09:15:06 29.354 - 29.394 USB, Beacon 29.352 USB
AO-7 25 Oct 08:55:47 09:02:41 31° 320° (NW) 09:09:36 29.400 - 29.500 MHz
PCSat 25 Oct 09:00:33 09:04:57 24° 353° (N) 09:09:23 145.825 MHz
Hamsat 25 Oct 09:08:24 09:11:39 22° 301° (WNW) 09:14:54 145.90 MHz
HO-68 25 Oct 09:15:50 09:20:49 20° 84° (E) 09:25:46 435.675 MHz FM
STRAND 1 25 Oct 09:19:57 09:22:30 14° 277° (W) 09:25:03 ?
SO-67 25 Oct 10:01:41 10:04:32 24° 296° (WNW) 10:07:23 435.3500 MHz FM
MaSat-1 25 Oct 10:07:38 10:09:48 21° 247° (WSW) 10:11:48 437.345 MHz
JAS-2 25 Oct 10:08:50 10:14:17 22° 317° (NW) 10:19:54 435.800 - 435.900 CW/SSB, 435.910 FM
Saudisat 1A 25 Oct 10:09:38 10:14:02 69° 322° (NW) 10:18:28 436.775 MHz
Sapphire 25 Oct 10:22:32 10:27:04 26° 13° (NNE) 10:31:36 437.095 MHz 1200 baud AX-25 AFSK
ZACube-1 25 Oct 10:40:55 10:42:37 12° 84° (E) 10:44:18 437.345 MHz
UKube-1 25 Oct 10:43:44 10:47:25 26° 93° (E) 10:51:04 145.840 MHz, 145.915 MHz
PCSat 25 Oct 10:45:15 10:49:59 29° 19° (NNE) 10:54:42 145.825 MHz
AO-7 25 Oct 10:48:28 10:53:02 16° 346° (NNW) 10:57:37 29.400 - 29.500 MHz
HO-68 25 Oct 11:02:34 11:09:49 74° 106° (ESE) 11:17:01 435.675 MHz FM
RS-15 25 Oct 11:10:22 11:13:38 12° 271° (W) 11:16:57 29.354 - 29.394 USB, Beacon 29.352 USB
FUNcube-1 25 Oct 11:24:07 11:27:50 28° 93° (E) 11:31:28 145.950 - 145.970 MHz USB
Oscar 11 25 Oct 11:24:27 11:28:43 55° 101° (E) 11:32:57 145.825 FM, Beacon 2401.500 USB
Saudisat 1A 25 Oct 11:50:24 11:54:16 29° 345° (NNW) 11:58:09 436.775 MHz
Sapphire 25 Oct 12:06:19 12:11:39 51° 37° (NE) 12:16:58 437.095 MHz 1200 baud AX-25 AFSK
ZACube-1 25 Oct 12:15:30 12:19:50 78° 104° (ESE) 12:24:03 437.345 MHz
Oscar 19 25 Oct 12:19:28 12:23:02 19° 50° (NE) 12:26:36 437.125 CW, 437.150 USB
UKube-1 25 Oct 12:19:36 12:23:52 51° 293° (WNW) 12:28:06 145.840 MHz, 145.915 MHz
PCSat 25 Oct 12:28:51 12:34:18 68° 43° (NE) 12:39:43 145.825 MHz
JAS-1B 25 Oct 12:37:14 12:41:48 26° 51° (NE) 12:46:26 435.800 - 435.900 CW/SSB
AO-7 25 Oct 12:38:13 12:42:46 16° 14° (NNE) 12:47:19 29.400 - 29.500 MHz
AO-27 25 Oct 12:39:41 12:42:39 16° 45° (NE) 12:45:38 436.795 MHz FM
HO-68 25 Oct 12:50:43 12:57:07 36° 309° (NW) 13:03:31 435.675 MHz FM
KITSAT 1 25 Oct 12:51:53 12:59:08 38° 114° (ESE) 13:06:23 435.175 FM
AO-Echo 25 Oct 12:54:56 12:58:33 20° 51° (NE) 13:02:14 ?
FUNcube-1 25 Oct 13:00:18 13:04:25 44° 294° (WNW) 13:08:26 145.950 - 145.970 MHz USB
Oscar 11 25 Oct 13:01:08 13:04:39 25° 301° (WNW) 13:08:09 145.825 FM, Beacon 2401.500 USB
Oscar 16 25 Oct 13:03:49 13:08:30 36° 60° (ENE) 13:13:11 437.025 USB, Beacon 2401.1428
Uribyol 2 25 Oct 13:25:00 13:29:26 29° 56° (ENE) 13:33:53 436.500 FM
ITAMSAT 1 25 Oct 13:31:08 13:35:37 30° 57° (ENE) 13:40:08 435.822 SSB
Saudisat 1A 25 Oct 13:31:15 13:34:59 26° 9° (N) 13:38:44 436.775 MHz
ISS 25 Oct 13:34:21 13:34:26 10° 141° (SE) 13:34:31 145.800 FM
Sapphire 25 Oct 13:49:56 13:55:08 47° 239° (WSW) 14:00:17 437.095 MHz 1200 baud AX-25 AFSK
ZACube-1 25 Oct 13:52:44 13:55:45 19° 305° (NW) 13:58:44 437.345 MHz
Gurwin Techsat 1B 25 Oct 13:55:12 13:59:38 28° 56° (NE) 14:04:05 435.225 FM
Oscar 19 25 Oct 13:56:33 14:01:42 81° 71° (ENE) 14:06:52 437.125 CW, 437.150 USB
UKube-1 25 Oct 13:57:48 13:59:09 11° 314° (NW) 14:00:30 145.840 MHz, 145.915 MHz
TMSAT-1 25 Oct 14:06:05 14:10:26 26° 55° (NE) 14:14:47 436.925 FM
PCSat 25 Oct 14:12:39 14:17:26 32° 245° (WSW) 14:22:10 145.825 MHz
SO-50 25 Oct 14:14:23 14:18:41 43° 126° (SE) 14:23:08 436.795 FM
AO-27 25 Oct 14:16:06 14:21:13 59° 67° (ENE) 14:26:23 436.795 MHz FM
AO-7 25 Oct 14:26:15 14:33:06 30° 40° (NE) 14:39:59 29.400 - 29.500 MHz
JAS-1B 25 Oct 14:26:16 14:32:02 77° 254° (WSW) 14:37:49 435.800 - 435.900 CW/SSB
AO-Echo 25 Oct 14:31:40 14:36:39 86° 72° (ENE) 14:41:50 ?
HO-68 25 Oct 14:39:19 14:42:57 15° 333° (NNW) 14:46:35 435.675 MHz FM
Uosat F 25 Oct 14:42:22 14:44:33 13° 43° (NE) 14:46:44 435.120 FM
Oscar 16 25 Oct 14:42:49 14:47:48 47° 261° (W) 14:52:47 437.025 USB, Beacon 2401.1428
KITSAT 1 25 Oct 14:45:55 14:54:02 79° 317° (NW) 15:02:11 435.175 FM
Uribyol 2 25 Oct 15:03:24 15:08:36 65° 257° (WSW) 15:13:50 436.500 FM
ISS 25 Oct 15:07:23 15:10:20 29° 160° (SSE) 15:13:17 145.800 FM
ITAMSAT 1 25 Oct 15:09:41 15:14:51 61° 258° (WSW) 15:20:04 435.822 SSB
Saudisat 1A 25 Oct 15:11:06 15:15:26 50° 32° (NNE) 15:19:45 436.775 MHz
JAS-2 25 Oct 15:17:05 15:20:43 15° 33° (NNE) 15:24:31 435.800 - 435.900 CW/SSB, 435.910 FM
Gurwin Techsat 1B 25 Oct 15:33:57 15:39:15 69° 257° (WSW) 15:44:35 435.225 FM
UOSAT-12 25 Oct 15:34:16 15:38:22 31° 121° (ESE) 15:42:32 437.025 FM, 437.400 FM
Oscar 19 25 Oct 15:37:54 15:41:41 20° 272° (W) 15:45:29 437.125 CW, 437.150 USB
TMSAT-1 25 Oct 15:44:38 15:49:56 73° 256° (WSW) 15:55:17 436.925 FM
SO-50 25 Oct 15:54:45 15:59:15 51° 328° (NNW) 16:03:54 436.795 FM
AO-27 25 Oct 15:56:36 16:01:06 29° 267° (W) 16:05:38 436.795 MHz FM
AO-Echo 25 Oct 16:12:41 16:16:09 19° 274° (W) 16:19:43 ?
AO-7 25 Oct 16:16:39 16:24:55 79° 64° (ENE) 16:33:14 29.400 - 29.500 MHz
Uosat F 25 Oct 16:17:26 16:22:16 49° 64° (ENE) 16:27:09 435.120 FM
JAS-1B 25 Oct 16:20:50 16:23:57 15° 277° (W) 16:27:03 435.800 - 435.900 CW/SSB
KITSAT 1 25 Oct 16:42:54 16:50:33 43° 344° (NNW) 16:58:12 435.175 FM
ISS 25 Oct 16:43:26 16:46:39 45° 180° (S) 16:49:52 145.800 FM
Uribyol 2 25 Oct 16:46:52 16:49:08 13° 278° (W) 16:51:25 436.500 FM
Saudisat 1A 25 Oct 16:50:49 16:55:00 42° 233° (SW) 16:59:10 436.775 MHz
ITAMSAT 1 25 Oct 16:53:31 16:55:28 12° 278° (W) 16:57:25 435.822 SSB
Hamsat 25 Oct 16:57:49 17:00:43 19° 56° (ENE) 17:03:38 145.90 MHz
JAS-2 25 Oct 16:58:03 17:03:56 41° 57° (ENE) 17:10:32 435.800 - 435.900 CW/SSB, 435.910 FM
UOSAT-12 25 Oct 17:13:35 17:18:17 67° 323° (NW) 17:23:02 437.025 FM, 437.400 FM
Gurwin Techsat 1B 25 Oct 17:17:35 17:20:15 14° 277° (W) 17:22:56 435.225 FM
TMSAT-1 25 Oct 17:27:56 17:30:51 15° 277° (W) 17:33:46 436.925 FM
SO-50 25 Oct 17:36:41 17:40:44 28° 352° (N) 17:44:52 436.795 FM
OPAL 25 Oct 17:55:33 17:58:50 17° 90° (E) 18:02:04 ?
Uosat F 25 Oct 17:56:44 18:01:16 33° 265° (W) 18:05:51 435.120 FM
HO-68 25 Oct 18:09:04 18:12:35 15° 26° (NNE) 18:16:07 435.675 MHz FM
AO-7 25 Oct 18:11:15 18:18:33 33° 267° (W) 18:25:54 29.400 - 29.500 MHz
ISS 25 Oct 18:20:00 18:22:58 30° 200° (SSW) 18:25:56 145.800 FM
Hamsat 25 Oct 18:32:02 18:36:14 77° 256° (WSW) 18:40:26 145.90 MHz
KITSAT 1 25 Oct 18:40:14 18:47:50 42° 13° (NNE) 18:55:26 435.175 FM
JAS-2 25 Oct 18:42:41 18:48:49 57° 261° (W) 18:55:49 435.800 - 435.900 CW/SSB, 435.910 FM
